Meteo Giornale » Osservazioni meteo Italia » Cuneo-Levaldigi

ore: 03:50 - Osservazioni Meteo Cuneo-Levaldigi
Lat. 44° 32' N Lon. 7° 37' E Alt. 396 metri s.l.m.

molto_nuvoloso Europe/Rome

16 °C

Molto Nuvoloso

Temp. 24 Ore

16 °C

21 °C

Nord

5.5 Km/h

Dew point 16 °C

Umidità 100 %

Visibilità  7 Km

Il sole sorge alle ore 06:19

Il sole tramonta alle ore 20:51

Data e Ora Cielo e Fenomeni T °C DP °C Um. % Pres. hPa Vis. km Vento km/h
Oggi h: 03:50 molto_nuvoloso Molto Nuvoloso 16 16 100 1009 7 N 5.5
Oggi h: 03:20 foschia Foschia 16 16 100 1010 5 N 3.7
Oggi h: 02:50 foschia Foschia 16 16 100 1010 4 N 3.7
Oggi h: 02:20 foschia Foschia 16 16 100 1010 5 N 3.7
Oggi h: 01:50 foschia Foschia 16 15 93 1009 4 N 3.7
Oggi h: 01:20 foschia Foschia 16 16 100 1010 5 N 5.5
Oggi h: 00:50 sereno Sereno 16 15 93 1009 6 O/SO 7.4
Oggi h: 00:20 nuvoloso Nuvoloso 17 16 93 1009 10 N 3.7
Ieri h: 23:50 nuvoloso Nuvoloso 17 16 93 1010 9 N 5.5
Ieri h: 23:20 molto_nuvoloso Molto Nuvoloso 18 17 93 1010 10 O 7.4
Ieri h: 22:50 molto_nuvoloso Molto Nuvoloso 17 17 100 1010 9 N 3.7
Ieri h: 22:20 poco_nuvoloso Poco Nuvoloso 18 17 93 1010 9 N 5.5
Ieri h: 21:50 nuvoloso Nuvoloso 18 17 93 1010 10 N 5.5
Ieri h: 21:20 poco_nuvoloso Poco Nuvoloso 19 17 88 1010 10 N 1.8
Ieri h: 20:50 nuvoloso Nuvoloso 19 18 93 1010 10 N 3.7
Ieri h: 20:20 nuvoloso Nuvoloso 20 18 88 1010 10 N 3.7
Ieri h: 19:50 molto_nuvoloso Molto Nuvoloso 20 18 88 1009 10 N 7.4
Ieri h: 19:20 nuvoloso Nuvoloso 20 17 82 1009 10 N 7.4
Ieri h: 18:50 molto_nuvoloso Molto Nuvoloso 21 18 82 1010 10 N 5.5
Ieri h: 18:20 molto_nuvoloso Molto Nuvoloso 21 18 82 1009 10 NE 11.1
Ieri h: 17:50 molto_nuvoloso Molto Nuvoloso 21 18 82 1010 10 N 7.4
Ieri h: 17:20 molto_nuvoloso Molto Nuvoloso 21 18 82 1010 10 N 5.5
Ieri h: 16:50 coperto_pioggia Pioggia Debole 20 18 88 1010 10 N/NO 7.4
Ieri h: 16:20 coperto_pioggia Pioggia Debole 20 18 88 1011 10 N 7.4
Ieri h: 15:50 coperto_pioggia Pioggia Debole 21 18 82 1011 10 N 7.4
Ieri h: 15:20 molto_nuvoloso Molto Nuvoloso 21 18 82 1011 10 N 9.3
Ieri h: 14:50 molto_nuvoloso Molto Nuvoloso 21 18 82 1012 10 N 9.3
Ieri h: 14:20 molto_nuvoloso Molto Nuvoloso 21 18 82 1011 10 N 13
Ieri h: 13:50 molto_nuvoloso Molto Nuvoloso 21 17 77 1012 10 N 11.1
Ieri h: 13:20 molto_nuvoloso Molto Nuvoloso 21 17 77 1012 10 N/NO 9.3
Ieri h: 12:50 molto_nuvoloso Molto Nuvoloso 21 17 77 1012 10 N/NE 7.4
Ieri h: 11:50 coperto Coperto 20 17 82 1013 10 N 7.4
Ieri h: 11:20 molto_nuvoloso Molto Nuvoloso 20 17 82 1013 10 N 11.1
Ieri h: 10:50 coperto Coperto 20 17 82 1013 10 N 5.5
Ieri h: 10:20 molto_nuvoloso Molto Nuvoloso 19 17 88 1013 10 N 3.7
Ieri h: 09:50 nuvoloso Nuvoloso 19 17 88 1013 10 N/NE 9.3
Ieri h: 09:20 molto_nuvoloso Molto Nuvoloso 19 17 88 1013 10 N/NE 7.4
Ieri h: 08:50 molto_nuvoloso Molto Nuvoloso 19 17 88 1013 10 N 5.5
Ieri h: 08:20 molto_nuvoloso Molto Nuvoloso 18 17 93 1013 10 N 5.5
Ieri h: 07:50 coperto Coperto 18 17 93 1013 10 N 3.7
Ieri h: 07:20 coperto Coperto 18 17 93 1013 10 N 3.7
Ieri h: 06:50 coperto Coperto 18 17 93 1013 10 N 3.7
Ieri h: 06:20 coperto Coperto 18 17 93 1013 10 N 1.8
Ieri h: 05:50 coperto Coperto 18 17 93 1013 10 N 3.7
Ieri h: 05:20 molto_nuvoloso Molto Nuvoloso 18 17 93 1013 10 N 5.5
Ieri h: 04:50 molto_nuvoloso Molto Nuvoloso 18 17 93 1013 10 N 5.5